Location: Pedholt
(56.0260°N, 10.2097°E)
Time: 21:15:24
(UTC+00:00)

Tiros 1 - Pass Details

Date: 03 August 2021
Orbit: 630 x 663 km, 48.4° (Epoch: 19 September)

Event Time Altitude Azimuth Distance (km) Brightness Sun altitude
Rises 20:37:29 0° 265° (W) 2,977 11.1 -8.7°
Reaches altitude 10° 20:40:07 10° 254° (WSW) 2,059 10.1 -8.9°
Maximum altitude 20:44:03 27° 197° (SSW) 1,256 8.3 -9.2°
Enters shadow 20:47:25 13° 145° (SE) 1,859 8.8 -9.5°
Drops below altitude 10° 20:47:59 10° 140° (SE) 2,036 - -9.6°
Sets 20:50:34 0° 129° (SE) 2,938 - -9.8°
